User: anonymous   Login
Location: Leeds
(37.2390°N, 113.3580°W)
Time: 18:36:59
(UTC-07:00)
Language:

SL-08 RB Rocket - Orbit

View from above orbital plane
View from above orbital plane
View from above satellite
View from above satellite

Ground track
Ground track

The orbit data is extracted from the following two-line orbital elements,

1 26387U 00033D   15065.39558417  .00000877  00000-0  16163-3 0  9993
2 26387 098.0737 134.9024 0028053 103.0629 312.6711 14.67744260785545
Epoch (UTC): 06 March 2015 09:29:38
Eccentricity: 0.0028053
inclination: 98.0737°
perigee height: 648 km
apogee height: 688 km
right ascension of ascending node: 134.9024°
argument of perigee: 103.0629°
revolutions per day: 14.67744260
mean anomaly at epoch: 312.6711°
orbit number at epoch: 78554

The dashed part of the orbit path shows where the satellite is in the earth's shadow,  

DLR